This demonstration page uses our WeatherBlox Daily Observations layout. Learn more.

Left ArrowRight Arrow

39.08367, -84.50855

Hourly Observations for October 11, 2018

Temp ( °F °C ) Dew Point ( °F °C ) Humidity (%) Winds ( mph kmh ) Pressure ( in mb ) Visibility ( mi km ) Precip ( " mm )
12:53 am 00:53 Clear with Mist and Fog 70 21.1 70 21.1 100 100 N N/A 29.75 1007 1 2 N/A
12:56 am 00:56 Mostly Cloudy with Fog 70 21.1 70 21.1 100 100 N N/A 29.77 1008 1 1 N/A
1:01 am 01:01 Partly Cloudy with Fog 69 20.6 69 20.6 100 100 N N/A 29.77 1008 0 0 N/A
1:15 am 01:15 Mostly Cloudy with Fog 70 21.1 70 21.1 100 100 N N/A 29.74 1007 1 1 N/A
1:24 am 01:24 Mostly Cloudy with Mist and Fog 70 21.1 70 21.1 100 100 N N/A 29.74 1007 2 3 N/A
1:27 am 01:27 Mostly Cloudy with Mist and Fog 70 21.1 70 21.1 100 100 N N/A 29.77 1008 6 10 N/A
1:36 am 01:36 Mostly Cloudy with Mist and Fog 69 20.6 69 20.6 100 100 N N/A 29.74 1007 1 2 N/A
1:44 am 01:44 Partly Cloudy with Fog 68 20 68 20 100 100 N N/A 29.77 1008 1 1 N/A
1:48 am 01:48 Partly Cloudy with Fog 68 20 68 20 100 100 N N/A 29.77 1008 0 0 N/A
1:53 am 01:53 Partly Cloudy with Fog 68 20 68 20 100 100 N N/A 29.75 1007 1 1 N/A
2:02 am 02:02 Mostly Cloudy with Mist and Fog 68 20 68 20 100 100 SSE 3 6 29.77 1008 1 2 N/A
2:11 am 02:11 Mostly Cloudy with Mist and Fog 69 20.6 69 20.6 100 100 N N/A 29.77 1008 3 5 N/A
2:27 am 02:27 Mostly Cloudy 69 20.6 69 20.6 100 100 W 3 6 29.77 1008 10 16 N/A
2:53 am 02:53 Mostly Clear 70 21.1 69 20.6 97 97 WSW 3 6 29.75 1007 10 16 N/A
3:53 am 03:53 Cloudy 70 21.1 68 20 93 93 WNW 14 22 29.75 1008 10 16 N/A
4:53 am 04:53 Mostly Cloudy 66 18.9 62 16.7 87 87 NW 8 13 29.78 1008 10 16 N/A
5:53 am 05:53 Cloudy 63 17.2 59 15 87 87 NW 8 13 29.79 1009 10 16 N/A
6:53 am 06:53 Cloudy 60 15.6 55 12.8 84 84 NW 9 15 29.82 1010 10 16 N/A
7:53 am 07:53 Mostly Cloudy 57 13.9 53 11.7 87 87 NW 12 19 29.83 1010 10 16 N/A
8:53 am 08:53 Cloudy 57 13.9 50 10 78 78 W 10 17 29.86 1011 10 16 N/A
9:53 am 09:53 Cloudy 57 13.9 50 10 78 78 W 10 17 29.89 1012 10 16 N/A
10:53 am 10:53 Cloudy 56 13.3 49 9.4 77 77 NW 7 11 29.89 1012 10 16 N/A
11:53 am 11:53 Cloudy 57 13.9 48 8.9 72 72 NW 12 19 29.89 1012 10 16 N/A
12:53 pm 12:53 Mostly Cloudy 59 15 50 10 72 72 NW 13 20 29.89 1012 10 16 N/A
1:53 pm 13:53 Mostly Cloudy 63 17.2 51 10.6 65 65 W 10 17 29.88 1012 10 16 N/A
2:53 pm 14:53 Mostly Sunny 63 17.2 49 9.4 60 60 W 14 22 29.88 1012 10 16 N/A
3:53 pm 15:53 Sunny 63 17.2 47 8.3 56 56 W 16 26 29.88 1012 10 16 N/A
4:53 pm 16:53 Sunny 62 16.7 46 7.8 56 56 W 16 26 29.89 1012 10 16 N/A
5:53 pm 17:53 Sunny 61 16.1 43 6.1 52 52 NW 12 19 29.89 1012 10 16 N/A
6:53 pm 18:53 Sunny 58 14.4 42 5.6 56 56 NW 9 15 29.91 1013 10 16 N/A
7:53 pm 19:53 Clear 56 13.3 41 5 57 57 VRB 6 9 29.95 1014 10 16 N/A
8:53 pm 20:53 Clear 53 11.7 40 4.4 61 61 NW 5 7 29.97 1015 10 16 N/A
9:53 pm 21:53 Clear 52 11.1 40 4.4 64 64 NW 5 7 29.99 1016 10 16 N/A
10:53 pm 22:53 Clear 51 10.6 40 4.4 66 66 NW 5 7 30.01 1016 10 16 N/A
11:53 pm 23:53 Clear 50 10 39 3.9 66 66 VRB 7 11 30.01 1016 10 16 N/A

Powered by AerisWeather